When you browse on this site, cookies collect data to enhance your experience and personalize the content and advertising you see.
Visit our Privacy Policy to learn more. By continuing to use the site, you agree to this use of cookies and data.
  • In Hungary
  • List of Countries
  • For 7 days
  • Water Temperature
  • Satellite Maps
  • Weather Map
  • News
  • Weather Widgets
  • user-avatar
    Login

    Hourly Weather Spremberg

    Today, 21 February, Thursday

    Time Temperature Precipitation Wind Pressure Humidity
    00:00 +4°C° 0 mm 2 mps 758 mmHg 87%
    01:00 +4°C° 0 mm 2 mps 758 mmHg 87%
    02:00 +4°C° 0 mm 2 mps 758 mmHg 88%
    03:00 +3°C° 0 mm 3 mps 758 mmHg 89%
    04:00 +3°C° 0 mm 3 mps 758 mmHg 89%
    05:00 +3°C° 0 mm 3 mps 758 mmHg 88%
    06:00 +3°C° 0 mm 3 mps 758 mmHg 87%
    07:00 +4°C° 0 mm 3 mps 758 mmHg 86%
    08:00 +4°C° 0 mm 4 mps 758 mmHg 82%
    09:00 +5°C° 0 mm 4 mps 758 mmHg 79%
    10:00 +6°C° 0 mm 4 mps 758 mmHg 76%
    11:00 +6°C° 0.4 mm 4 mps 758 mmHg 78%
    12:00 +6°C° 0.4 mm 4 mps 758 mmHg 80%
    13:00 +6°C° 0.4 mm 4 mps 757 mmHg 82%
    14:00 +7°C° 0.1 mm 4 mps 757 mmHg 79%
    15:00 +8°C° 0.1 mm 4 mps 757 mmHg 75%
    16:00 +8°C° 0.1 mm 4 mps 757 mmHg 71%
    17:00 +8°C° 0.1 mm 4 mps 757 mmHg 76%
    18:00 +7°C° 0.1 mm 4 mps 757 mmHg 81%
    19:00 +7°C° 0.1 mm 4 mps 757 mmHg 86%
    20:00 +7°C° 0.5 mm 4 mps 757 mmHg 87%
    21:00 +7°C° 0.5 mm 4 mps 757 mmHg 88%
    22:00 +7°C° 0.5 mm 5 mps 757 mmHg 90%
    23:00 +7°C° 0.2 mm 4 mps 757 mmHg 91%

    Tomorrow, 22 February, Friday

    Time Temperature Precipitation Wind Pressure Humidity
    00:00 +7°C° 0.2 mm 4 mps 757 mmHg 91%
    01:00 +7°C° 0.2 mm 4 mps 757 mmHg 92%
    02:00 +7°C° 0.3 mm 4 mps 757 mmHg 92%
    03:00 +7°C° 0.3 mm 4 mps 757 mmHg 92%
    04:00 +7°C° 0.3 mm 5 mps 758 mmHg 92%
    05:00 +7°C° 0.1 mm 4 mps 758 mmHg 92%
    06:00 +7°C° 0.1 mm 4 mps 759 mmHg 91%
    07:00 +6°C° 0.1 mm 4 mps 760 mmHg 91%
    08:00 +6°C° 0.1 mm 4 mps 761 mmHg 87%
    09:00 +5°C° 0.1 mm 5 mps 762 mmHg 84%
    10:00 +3°C° 0.1 mm 5 mps 763 mmHg 80%
    11:00 +4°C° 0 mm 4 mps 764 mmHg 77%
    12:00 +3°C° 0 mm 4 mps 764 mmHg 75%
    13:00 +3°C° 0 mm 3 mps 765 mmHg 72%
    14:00 +3°C° 0 mm 3 mps 766 mmHg 69%
    15:00 +3°C° 0 mm 3 mps 766 mmHg 66%
    16:00 +5°C° 0 mm 2 mps 767 mmHg 62%
    17:00 +3°C° 0 mm 2 mps 767 mmHg 65%
    18:00 +2°C° 0 mm 2 mps 768 mmHg 68%
    19:00 +1°C° 0 mm 2 mps 768 mmHg 71%
    20:00 +1°C° 0 mm 2 mps 769 mmHg 71%
    21:00 -1°C° 0 mm 2 mps 769 mmHg 72%
    22:00 -2°C° 0 mm 2 mps 770 mmHg 72%
    23:00 -2°C° 0 mm 2 mps 770 mmHg 72%

    Day after tomorrow, 23 February, Saturday

    Time Temperature Precipitation Wind Pressure Humidity
    00:00 -2°C° 0 mm 2 mps 770 mmHg 71%
    01:00 -2°C° 0 mm 2 mps 770 mmHg 71%
    02:00 0°C° 0 mm 1 mps 770 mmHg 70%
    03:00 0°C° 0 mm 1 mps 770 mmHg 69%
    04:00 -1°C° 0 mm 1 mps 770 mmHg 67%
    05:00 -1°C° 0 mm 1 mps 770 mmHg 67%
    06:00 -1°C° 0 mm 1 mps 770 mmHg 66%
    07:00 -3°C° 0 mm 2 mps 770 mmHg 65%
    08:00 -2°C° 0 mm 2 mps 770 mmHg 57%
    09:00 -1°C° 0 mm 2 mps 771 mmHg 50%
    10:00 +1°C° 0 mm 2 mps 771 mmHg 43%
    11:00 +2°C° 0 mm 2 mps 771 mmHg 38%
    12:00 +4°C° 0 mm 2 mps 771 mmHg 34%
    13:00 +6°C° 0 mm 1 mps 771 mmHg 29%
    14:00 +6°C° 0 mm 1 mps 770 mmHg 31%
    15:00 +6°C° 0 mm 1 mps 770 mmHg 32%
    16:00 +6°C° 0 mm 1 mps 770 mmHg 34%
    17:00 +4°C° 0 mm 1 mps 770 mmHg 38%
    18:00 +3°C° 0 mm 1 mps 770 mmHg 42%
    19:00 +2°C° 0 mm 1 mps 770 mmHg 46%
    20:00 +1°C° 0 mm 1 mps 770 mmHg 47%
    21:00 +1°C° 0 mm 1 mps 770 mmHg 47%
    22:00 +1°C° 0 mm 1 mps 770 mmHg 47%
    23:00 +1°C° 0 mm 1 mps 769 mmHg 46%

    24 February, Sunday

    Time Temperature Precipitation Wind Pressure Humidity
    00:00 +1°C° 0 mm 1 mps 769 mmHg 45%
    01:00 0°C° 0 mm 0 mps 769 mmHg 44%
    02:00 0°C° 0 mm 0 mps 769 mmHg 44%
    03:00 0°C° 0 mm 0 mps 769 mmHg 43%
    04:00 0°C° 0 mm 0 mps 769 mmHg 42%
    05:00 +1°C° 0 mm 1 mps 768 mmHg 43%
    06:00 +1°C° 0 mm 1 mps 768 mmHg 43%
    07:00 +1°C° 0 mm 1 mps 768 mmHg 43%
    08:00 +3°C° 0 mm 1 mps 768 mmHg 41%
    09:00 +4°C° 0 mm 1 mps 769 mmHg 39%
    10:00 +5°C° 0 mm 2 mps 769 mmHg 36%
    11:00 +6°C° 0 mm 2 mps 768 mmHg 38%
    12:00 +7°C° 0 mm 2 mps 768 mmHg 39%
    13:00 +8°C° 0 mm 2 mps 768 mmHg 40%
    14:00 +8°C° 0 mm 2 mps 768 mmHg 44%
    15:00 +8°C° 0 mm 2 mps 767 mmHg 49%
    16:00 +8°C° 0 mm 2 mps 767 mmHg 53%
    17:00 +7°C° 0 mm 2 mps 767 mmHg 59%
    18:00 +6°C° 0 mm 2 mps 767 mmHg 65%
    19:00 +4°C° 0 mm 2 mps 767 mmHg 71%
    20:00 +4°C° 0 mm 2 mps 767 mmHg 73%
    21:00 +4°C° 0 mm 2 mps 767 mmHg 76%
    22:00 +3°C° 0 mm 2 mps 767 mmHg 78%
    23:00 +3°C° 0 mm 2 mps 768 mmHg 81%

    25 February, Monday

    Time Temperature Precipitation Wind Pressure Humidity
    00:00 +3°C° 0 mm 2 mps 768 mmHg 85%
    01:00 +2°C° 0 mm 2 mps 768 mmHg 88%
    02:00 +2°C° 0 mm 2 mps 768 mmHg 91%
    03:00 +1°C° 0 mm 2 mps 768 mmHg 93%
    04:00 +2°C° 0 mm 1 mps 768 mmHg 96%
    05:00 +3°C° 0 mm 1 mps 768 mmHg 97%
    06:00 +3°C° 0 mm 1 mps 768 mmHg 97%
    07:00 +4°C° 0 mm 1 mps 768 mmHg 97%
    08:00 +4°C° 0 mm 1 mps 769 mmHg 94%
    09:00 +5°C° 0 mm 1 mps 769 mmHg 90%
    10:00 +6°C° 0 mm 1 mps 769 mmHg 86%
    11:00 +7°C° 0 mm 1 mps 769 mmHg 75%
    12:00 +7°C° 0 mm 2 mps 769 mmHg 65%
    13:00 +9°C° 0 mm 2 mps 769 mmHg 54%
    14:00 +9°C° 0 mm 2 mps 768 mmHg 52%
    15:00 +9°C° 0 mm 2 mps 768 mmHg 50%
    16:00 +9°C° 0 mm 2 mps 767 mmHg 48%
    17:00 +8°C° 0 mm 2 mps 767 mmHg 53%
    18:00 +7°C° 0 mm 1 mps 768 mmHg 58%
    19:00 +6°C° 0 mm 1 mps 768 mmHg 63%
    20:00 +5°C° 0 mm 1 mps 768 mmHg 64%
    21:00 +4°C° 0 mm 0 mps 768 mmHg 66%
    22:00 +3°C° 0 mm 0 mps 768 mmHg 67%
    23:00 +4°C° 0 mm 1 mps 767 mmHg 69%

    26 February, Tuesday

    Time Temperature Precipitation Wind Pressure Humidity
    00:00 +3°C° 0 mm 1 mps 767 mmHg 70%
    01:00 +2°C° 0 mm 2 mps 767 mmHg 71%
    02:00 +2°C° 0 mm 2 mps 766 mmHg 73%
    03:00 +1°C° 0 mm 2 mps 766 mmHg 75%
    04:00 +1°C° 0 mm 2 mps 765 mmHg 76%
    05:00 +1°C° 0 mm 2 mps 765 mmHg 77%
    06:00 +1°C° 0 mm 2 mps 765 mmHg 78%
    07:00 -1°C° 0 mm 2 mps 764 mmHg 79%
    08:00 +2°C° 0 mm 2 mps 764 mmHg 72%
    09:00 +4°C° 0 mm 2 mps 764 mmHg 65%
    10:00 +6°C° 0 mm 2 mps 764 mmHg 58%
    11:00 +7°C° 0 mm 2 mps 764 mmHg 54%
    12:00 +9°C° 0 mm 2 mps 763 mmHg 49%
    13:00 +10°C° 0 mm 3 mps 763 mmHg 45%
    14:00 +10°C° 0 mm 3 mps 762 mmHg 47%
    15:00 +10°C° 0 mm 3 mps 762 mmHg 49%
    16:00 +10°C° 0 mm 2 mps 761 mmHg 50%
    17:00 +9°C° 0 mm 2 mps 761 mmHg 57%
    18:00 +7°C° 0 mm 2 mps 761 mmHg 63%
    19:00 +6°C° 0 mm 2 mps 761 mmHg 69%
    20:00 +5°C° 0 mm 2 mps 760 mmHg 71%
    21:00 +5°C° 0 mm 2 mps 760 mmHg 72%
    22:00 +4°C° 0 mm 2 mps 760 mmHg 73%
    23:00 +4°C° 0 mm 2 mps 760 mmHg 73%
    Show more